EZY4EF EGKK-EGJJ

Flight info

Callsign EZY4EF
Flight time N/A
Altitude 20000
Route NOVMA L620 SAM N63 LELNA
Aircraft A320/M-SDE3FGHIRWY/LB1

Departure

Time 2026-05-05 16:30
Airport London Gatwick Airport (EGKK)

Arrival

Time N/A
Airport Jersey Airport (EGJJ)
Time Latitude Longitude Altitude Speed Heading
2026-05-05 16:06 51.15529 -0.16586 212 ft 0 kts 348°
2026-05-05 16:13 51.15496 -0.16577 213 ft 4 kts 352°
2026-05-05 16:13 51.15470 -0.16571 209 ft 3 kts 352°
2026-05-05 16:13 51.15455 -0.16567 205 ft 2 kts 350°
2026-05-05 16:14 51.15440 -0.16563 205 ft 0 kts 348°
2026-05-05 16:15 51.15441 -0.16564 205 ft 2 kts 341°
2026-05-05 16:16 51.15449 -0.16617 206 ft 3 kts 271°
2026-05-05 16:16 51.15453 -0.16765 205 ft 10 kts 275°
2026-05-05 16:17 51.15430 -0.16976 208 ft 9 kts 255°
2026-05-05 16:17 51.15417 -0.17058 213 ft 0 kts 256°
2026-05-05 16:18 51.15411 -0.17102 206 ft 9 kts 257°
2026-05-05 16:18 51.15380 -0.17237 206 ft 14 kts 251°
2026-05-05 16:18 51.15376 -0.17253 208 ft 0 kts 251°
2026-05-05 16:19 51.15366 -0.17300 207 ft 7 kts 251°
2026-05-05 16:19 51.15302 -0.17438 214 ft 9 kts 252°
2026-05-05 16:20 51.15270 -0.17671 210 ft 13 kts 258°
2026-05-05 16:20 51.15225 -0.18003 213 ft 18 kts 259°
2026-05-05 16:21 51.15165 -0.18447 205 ft 23 kts 259°
2026-05-05 16:22 51.15043 -0.19244 205 ft 20 kts 214°
2026-05-05 16:22 51.14938 -0.19465 211 ft 12 kts 262°
2026-05-05 16:23 51.14915 -0.19719 206 ft 11 kts 257°
2026-05-05 16:23 51.14899 -0.19834 214 ft 11 kts 258°
2026-05-05 16:23 51.14863 -0.20101 202 ft 13 kts 258°
2026-05-05 16:24 51.14839 -0.20238 211 ft 13 kts 251°
2026-05-05 16:24 51.14811 -0.20377 211 ft 13 kts 253°
2026-05-05 16:24 51.14772 -0.20624 202 ft 11 kts 260°
2026-05-05 16:25 51.14756 -0.20747 204 ft 11 kts 257°
2026-05-05 16:25 51.14724 -0.20974 206 ft 10 kts 259°
2026-05-05 16:25 51.14710 -0.21082 207 ft 10 kts 257°
2026-05-05 16:26 51.14676 -0.21287 205 ft 8 kts 232°
2026-05-05 16:26 51.14596 -0.21318 212 ft 4 kts 166°
2026-05-05 16:27 51.14555 -0.21286 206 ft 6 kts 144°
2026-05-05 16:27 51.14524 -0.21229 211 ft 10 kts 119°
2026-05-05 16:27 51.14518 -0.21141 205 ft 5 kts 79°
2026-05-05 16:27 51.14519 -0.21133 209 ft 0 kts 79°
2026-05-05 16:29 51.14526 -0.21073 209 ft 25 kts 78°
2026-05-05 16:30 51.14611 -0.20462 207 ft 87 kts 78°
2026-05-05 16:30 51.14784 -0.19209 212 ft 143 kts 78°
2026-05-05 16:30 51.15026 -0.17485 602 ft 171 kts 77°
2026-05-05 16:30 51.15306 -0.15561 1416 ft 176 kts 77°
2026-05-05 16:31 51.15556 -0.13615 2257 ft 187 kts 76°
2026-05-05 16:31 51.15834 -0.11514 2834 ft 205 kts 76°
2026-05-05 16:31 51.16156 -0.09168 3460 ft 222 kts 76°
2026-05-05 16:31 51.16583 -0.06725 4111 ft 236 kts 62°
2026-05-05 16:32 51.17704 -0.04749 4733 ft 251 kts 30°
2026-05-05 16:32 51.19390 -0.04001 5513 ft 258 kts 359°
2026-05-05 16:32 51.21105 -0.04729 6404 ft 264 kts 330°
2026-05-05 16:32 51.22437 -0.06775 7183 ft 272 kts 301°
2026-05-05 16:33 51.23014 -0.09659 7977 ft 279 kts 273°
2026-05-05 16:33 51.22829 -0.12756 8823 ft 283 kts 261°
2026-05-05 16:33 51.22423 -0.15852 9636 ft 287 kts 258°
2026-05-05 16:33 51.21971 -0.18964 10357 ft 291 kts 257°
2026-05-05 16:34 51.21502 -0.22130 11024 ft 296 kts 257°
2026-05-05 16:34 51.21041 -0.25361 11716 ft 300 kts 258°
2026-05-05 16:34 51.20600 -0.28642 12390 ft 305 kts 259°
2026-05-05 16:34 51.20175 -0.31971 13125 ft 307 kts 259°
2026-05-05 16:35 51.19750 -0.35341 13709 ft 314 kts 259°
2026-05-05 16:35 51.19318 -0.38772 14271 ft 320 kts 259°
2026-05-05 16:35 51.18869 -0.42317 14613 ft 333 kts 259°
2026-05-05 16:35 51.18398 -0.46036 14795 ft 351 kts 258°
2026-05-05 16:36 51.17573 -0.49799 14868 ft 372 kts 242°
2026-05-05 16:36 51.16163 -0.53384 14959 ft 390 kts 234°
2026-05-05 16:36 51.14541 -0.56803 15058 ft 375 kts 231°
2026-05-05 16:36 51.12925 -0.59898 15060 ft 353 kts 229°
2026-05-05 16:37 51.11355 -0.62731 15059 ft 342 kts 227°
2026-05-05 16:37 51.09738 -0.65523 15066 ft 345 kts 226°
2026-05-05 16:37 51.08049 -0.68345 15142 ft 358 kts 226°
2026-05-05 16:37 51.06324 -0.71206 15779 ft 358 kts 230°
2026-05-05 16:38 51.04948 -0.74507 16386 ft 361 kts 242°
2026-05-05 16:38 51.03878 -0.78130 16991 ft 364 kts 248°
2026-05-05 16:38 51.02996 -0.81915 17598 ft 366 kts 252°
2026-05-05 16:38 51.02258 -0.85794 18200 ft 368 kts 255°
2026-05-05 16:39 51.01637 -0.89738 18730 ft 370 kts 257°
2026-05-05 16:39 51.01080 -0.93733 19238 ft 372 kts 258°
2026-05-05 16:39 51.00542 -0.97726 19600 ft 366 kts 258°
2026-05-05 16:39 51.00042 -1.01486 19793 ft 369 kts 258°
2026-05-05 16:40 50.99508 -1.05505 19865 ft 375 kts 258°
2026-05-05 16:40 50.98972 -1.09499 19904 ft 374 kts 258°
2026-05-05 16:40 50.98428 -1.13516 19921 ft 372 kts 258°
2026-05-05 16:40 50.97882 -1.17523 19928 ft 371 kts 258°
2026-05-05 16:41 50.97334 -1.21530 19930 ft 372 kts 258°
2026-05-05 16:41 50.96777 -1.25553 19935 ft 372 kts 258°
2026-05-05 16:41 50.96149 -1.29546 19923 ft 372 kts 249°
2026-05-05 16:41 50.94843 -1.33064 19897 ft 373 kts 229°
2026-05-05 16:42 50.92872 -1.35725 19908 ft 373 kts 215°
2026-05-05 16:42 50.90682 -1.37941 19925 ft 374 kts 211°
2026-05-05 16:42 50.88422 -1.39993 19937 ft 375 kts 210°
2026-05-05 16:42 50.86125 -1.41957 19938 ft 374 kts 208°
2026-05-05 16:43 50.83817 -1.43859 19942 ft 375 kts 207°